GFSSW_sfc_rhum_000.txt.gz
RH
86 86 86 87 85 85 85 84 85 85 83 84 84 84 84 85 86 49 11 15 18 72 67 19 20 18 20 16 17 15 9 11 12 13 22 21 22 25 22 32 40 36 29 40 42
84 85 86 87 86 86 87 87 85 85 82 83 84 83 84 84 33 11 24 51 66 74 12 12 14 17 13 13 14 11 8 11 12 12 17 20 21 25 28 36 47 43 42 45 41
82 84 86 86 84 85 86 87 85 84 84 83 82 82 84 69 18 5 59 60 74 61 8 7 13 13 10 7 10 8 10 15 18 17 17 20 23 22 24 28 37 49 50 45 42
82 84 85 83 82 84 84 85 84 84 84 83 82 81 82 39 7 9 61 67 74 18 9 8 12 9 7 8 7 10 18 17 22 19 17 18 19 31 31 35 38 41 43 44 42
82 86 86 85 84 85 86 87 85 84 83 81 81 79 57 16 7 20 70 59 21 13 7 11 11 8 8 7 8 14 21 21 20 18 17 16 23 36 41 39 40 42 44 44 40
85 88 87 86 86 86 87 88 86 85 82 79 78 80 32 10 10 20 21 13 12 9 6 12 7 6 6 7 8 16 19 20 17 15 15 18 23 24 44 40 43 44 43 41 40
87 87 87 86 85 84 86 88 89 84 80 79 79 51 22 7 16 16 20 7 6 5 7 9 7 6 5 12 13 19 23 24 18 20 17 15 23 34 41 39 41 40 42 41 43
87 86 86 86 86 86 88 90 88 83 81 81 83 44 11 10 16 13 9 8 8 9 9 9 7 6 6 11 16 15 15 20 20 20 20 24 30 35 33 34 39 40 42 44 45
86 86 86 87 88 89 90 91 87 85 82 82 56 37 13 32 16 10 7 7 8 10 10 8 6 6 9 9 11 14 14 14 20 20 22 20 26 30 28 28 34 37 39 40 42
86 86 87 88 89 90 90 91 88 84 69 53 42 31 14 10 10 9 8 6 9 9 9 8 6 6 6 8 11 12 11 13 16 18 22 20 25 26 27 25 29 32 34 37 37
86 86 87 88 89 90 70 44 33 34 37 16 14 13 9 8 9 8 8 7 7 7 8 8 8 8 7 7 6 6 8 12 13 15 19 21 28 26 25 25 24 25 34 32 33
87 87 88 88 89 89 56 20 20 20 22 12 15 15 13 7 9 8 8 8 8 7 6 8 8 6 6 7 7 7 8 9 16 18 19 27 29 28 26 23 26 25 31 31 32
87 88 88 90 90 65 16 12 18 19 20 13 14 12 10 9 7 7 8 7 7 7 7 6 5 7 8 8 8 8 8 9 13 24 20 28 31 37 30 29 27 28 27 31 33
87 87 89 89 50 16 10 20 14 18 17 12 10 9 9 6 6 5 6 6 6 7 6 7 7 7 7 8 8 10 9 9 12 26 20 22 19 38 32 36 33 29 32 31 34
87 88 87 90 33 13 15 11 15 16 18 7 8 7 7 6 6 8 6 7 7 7 8 9 8 8 8 7 8 12 14 15 16 22 22 30 23 17 29 35 31 29 28 29 30
87 89 87 42 39 18 11 14 20 17 16 10 7 9 8 6 6 8 8 7 6 7 7 7 6 6 7 7 8 16 19 20 17 14 20 14 19 13 17 29 25 27 28 31 30
88 89 88 40 8 14 15 19 23 17 10 9 7 7 7 7 6 8 10 10 8 11 11 9 8 7 8 11 12 12 12 15 16 16 14 16 18 15 12 23 21 23 28 31 31
88 91 64 36 21 16 11 17 32 12 9 10 6 6 7 6 6 7 9 9 7 7 7 10 12 8 7 8 10 10 8 10 20 13 10 22 16 15 20 20 17 21 23 28 32
89 21 24 23 30 24 14 20 18 12 13 13 7 7 7 6 6 7 8 8 7 6 9 9 9 7 7 8 8 10 12 7 12 10 11 10 16 17 19 22 23 26 27 29 31
51 24 12 20 27 16 16 25 16 14 14 12 13 7 8 7 8 8 9 7 7 6 6 8 12 7 9 9 11 10 8 11 10 20 22 13 14 13 17 16 21 26 29 31 30
38 11 20 23 19 11 17 16 14 10 12 14 13 11 8 7 7 8 8 7 6 6 6 6 10 12 11 11 9 12 11 12 10 13 16 15 13 13 14 14 17 23 29 32 30
30 10 22 21 15 13 15 16 31 12 10 11 12 12 10 7 8 7 8 7 5 6 8 7 9 12 11 10 10 8 10 11 15 25 15 16 12 12 12 13 15 18 26 29 32
29 16 20 22 18 20 19 18 14 12 11 11 12 11 10 11 12 8 8 6 7 7 8 8 10 12 13 12 13 13 12 10 10 11 21 17 14 17 16 19 19 19 24 32 35
40 21 22 22 23 24 20 18 16 14 12 13 13 12 13 13 13 13 11 13 12 10 47 22 10 14 10 13 9 14 12 12 10 15 16 15 16 14 16 19 18 22 27 30 37
34 34 42 23 24 24 24 21 19 17 15 16 14 13 16 16 13 13 11 14 14 40 17 12 19 13 10 8 8 10 12 13 14 13 16 14 17 17 18 18 20 19 21 32 36
40 38 30 30 36 28 34 26 20 19 21 16 19 20 18 18 19 14 13 14 14 16 17 18 21 18 13 11 10 10 10 12 13 12 16 15 17 12 14 15 16 17 20 28 36
38 36 41 46 32 26 28 30 27 26 23 22 26 24 18 24 28 25 22 21 18 20 20 22 21 25 19 15 15 17 14 14 14 16 16 17 16 14 16 17 18 24 23 27 31

GFSSW_sfc_rhum_003.txt.gz
RH
85 85 85 86 84 84 85 84 85 85 85 85 84 87 87 86 87 40 13 17 18 67 64 12 16 14 16 15 10 9 13 8 11 12 15 13 17 17 19 22 22 23 25 30 30
84 84 86 86 85 86 86 86 85 85 84 84 84 84 84 85 31 13 28 66 74 72 12 10 10 11 13 10 8 9 8 9 8 10 12 14 16 19 24 30 28 27 26 29 31
82 84 85 86 84 85 86 86 85 83 84 84 83 83 83 69 18 7 56 64 71 58 8 6 7 10 11 7 7 7 7 9 10 10 11 13 13 13 15 28 28 36 35 33 34
80 82 85 82 82 83 84 85 86 86 84 83 83 83 80 35 10 11 64 69 71 17 8 5 8 11 9 7 6 10 9 10 10 10 11 12 14 20 26 27 27 29 31 32 35
81 84 86 85 84 84 86 86 86 88 83 82 80 80 56 17 9 16 62 54 17 14 7 6 9 9 7 6 6 10 11 11 10 10 10 12 19 28 32 28 27 29 31 32 31
84 86 86 86 86 85 86 88 88 88 84 80 77 80 31 13 5 10 10 9 5 8 5 6 9 6 6 6 8 10 11 11 10 10 12 16 19 27 33 28 31 33 33 31 30
86 87 86 86 85 84 85 88 90 86 81 78 77 48 15 8 8 9 9 4 4 4 4 6 6 6 6 7 8 10 12 12 12 11 11 12 19 30 32 30 33 33 32 33 34
87 87 86 87 85 86 89 88 91 85 81 80 80 36 16 5 8 10 8 4 4 4 4 7 6 5 5 6 10 10 11 14 12 12 16 52 30 28 26 29 33 33 33 35 36
86 87 87 88 88 89 91 88 89 85 83 79 56 34 15 25 12 7 5 4 4 4 7 7 5 5 6 8 12 10 12 14 14 11 23 45 25 25 20 23 29 30 31 32 33
86 87 88 88 89 90 91 88 85 84 71 39 27 24 13 8 7 6 4 4 4 6 9 6 6 6 7 7 12 12 12 11 14 12 12 23 22 23 20 18 25 26 28 29 30
86 87 88 89 89 90 65 36 37 42 30 14 13 8 7 5 6 6 5 4 5 7 9 8 7 7 6 7 6 8 9 10 10 10 12 14 19 22 21 19 20 22 27 26 26
86 88 88 89 90 88 58 19 14 16 18 8 8 10 7 6 7 6 5 6 6 8 6 8 8 6 5 5 6 6 7 9 9 10 12 14 19 18 20 20 19 20 23 23 24
87 87 89 89 90 60 16 13 9 12 18 8 7 8 9 6 6 5 4 5 7 7 6 7 7 6 6 6 7 7 7 7 9 10 10 18 18 22 18 18 19 17 19 20 23
86 87 88 87 47 13 8 11 12 12 20 9 8 8 7 6 7 4 4 4 6 6 5 5 4 5 5 6 6 8 6 6 7 12 15 11 16 26 23 20 18 19 18 18 20
86 87 87 91 31 9 8 7 9 13 21 6 6 5 6 6 6 5 4 5 6 5 5 6 5 6 7 6 6 9 6 7 7 9 12 16 15 26 25 27 22 17 18 19 20
86 87 86 26 34 17 10 7 14 19 17 7 7 8 7 6 4 4 5 5 5 5 5 6 5 6 6 5 6 8 9 10 10 10 15 15 22 14 28 28 23 20 16 18 19
86 88 83 38 9 8 10 13 23 20 7 7 7 6 7 5 6 5 6 8 7 10 9 8 6 5 5 6 7 8 9 14 15 15 16 11 11 15 10 12 12 16 19 17 18
87 87 55 33 15 14 12 13 28 13 9 6 5 6 7 5 6 6 7 8 7 6 8 10 10 6 6 7 9 9 8 11 22 14 11 12 15 11 7 10 13 14 14 18 21
87 18 15 14 20 13 12 16 17 13 7 6 5 6 7 5 5 8 8 7 7 6 9 9 9 5 6 6 6 9 10 6 8 9 11 10 12 9 13 12 14 13 15 19 21
51 20 10 10 18 14 13 22 13 8 11 10 12 6 8 6 6 7 9 7 6 5 5 7 11 6 5 5 6 8 7 9 9 18 19 12 12 11 16 13 11 13 15 18 20
46 13 10 12 16 13 14 14 12 9 10 12 12 9 6 6 6 6 8 6 5 5 5 5 8 9 7 8 9 8 10 10 8 13 15 14 13 11 12 12 12 12 13 17 20
23 13 15 15 16 13 11 11 18 9 9 10 10 11 8 6 6 6 6 7 5 5 6 6 7 10 8 6 6 6 9 10 13 20 13 13 13 8 9 9 11 12 14 16 22
27 12 12 15 14 13 11 9 10 11 10 10 10 10 9 8 9 6 6 4 4 5 7 6 8 11 11 8 7 8 8 7 8 9 24 18 15 13 11 12 13 14 13 19 25
29 17 9 16 12 16 15 13 15 12 11 9 10 11 11 11 8 8 6 5 5 5 39 17 8 12 9 12 9 12 8 8 8 13 14 15 15 16 14 15 15 15 16 16 24
28 19 27 17 13 16 17 14 15 14 12 10 12 11 13 15 10 10 7 7 8 32 11 8 15 11 8 6 7 8 9 8 11 12 14 13 17 14 14 15 16 14 15 17 22
27 28 26 21 27 25 32 21 16 13 16 13 13 10 12 18 24 12 11 11 12 11 11 11 16 13 12 8 6 7 7 8 9 9 10 10 13 11 11 12 13 14 14 16 19
28 24 29 35 20 19 17 18 18 18 16 16 18 17 15 20 21 19 16 15 15 15 15 17 14 17 18 10 9 11 9 9 9 9 11 14 14 14 15 15 15 18 17 18 17

GFSSW_sfc_rhum_006.txt.gz
RH
85 84 85 86 86 85 86 85 85 85 86 86 87 87 88 88 87 39 14 15 22 71 72 12 9 12 11 14 14 24 21 14 14 15 19 15 17 14 15 20 22 23 29 29 27
83 84 84 86 85 85 86 88 86 85 85 85 85 84 87 86 35 15 20 58 70 71 12 8 8 8 11 11 9 9 13 12 12 10 30 43 24 18 21 22 23 24 27 28 27
80 83 85 84 83 84 85 86 87 85 87 85 84 84 85 72 24 9 37 61 69 54 7 6 6 8 11 9 7 8 9 8 11 13 26 32 30 45 66 27 25 31 32 31 30
80 82 85 82 82 83 84 84 86 86 85 83 82 82 82 41 14 11 67 66 71 12 8 8 6 9 12 8 6 9 10 9 9 16 16 14 24 44 55 55 25 26 29 31 32
83 86 86 86 84 84 85 86 86 87 87 85 82 80 58 20 12 18 67 58 12 9 7 8 6 10 10 6 6 10 10 9 11 12 12 16 22 35 30 28 23 24 28 32 31
86 87 87 87 87 85 86 88 87 87 86 83 79 82 35 18 5 10 8 9 6 7 7 6 6 8 7 6 7 9 10 9 10 10 13 17 21 25 28 26 27 28 30 30 30
86 87 87 87 87 85 87 88 86 88 85 80 77 46 24 10 5 6 6 6 5 6 6 4 5 8 6 6 8 9 11 10 10 12 15 14 24 30 28 28 31 30 30 29 29
86 86 87 88 88 88 89 89 86 88 83 79 79 35 22 7 5 7 6 4 3 4 4 4 7 6 6 5 8 10 10 13 12 17 18 18 33 29 25 28 32 30 29 31 33
85 86 87 88 89 89 90 88 86 88 83 77 56 31 20 18 6 8 6 4 3 4 4 4 7 7 6 7 12 11 14 16 16 16 17 20 26 26 22 24 27 28 28 31 33
85 85 87 88 88 90 90 89 70 85 73 38 30 28 20 12 6 7 6 3 4 4 5 9 9 8 7 8 15 13 15 16 17 16 18 19 23 22 19 21 25 25 27 29 30
85 85 86 88 88 90 69 17 36 46 33 20 12 10 8 8 6 6 5 3 3 4 9 10 10 9 7 8 8 10 10 15 14 18 21 21 23 22 17 19 24 25 27 26 26
85 85 86 87 87 87 69 15 13 11 16 11 11 10 7 5 7 5 4 5 5 7 8 10 10 6 6 6 7 7 8 10 11 11 13 25 25 21 18 18 22 24 27 25 26
85 85 86 87 86 60 19 15 9 9 16 13 9 7 8 6 7 6 4 4 5 8 8 9 8 6 6 6 7 7 7 8 10 10 10 12 25 38 21 17 18 19 22 23 25
85 84 86 88 42 16 11 8 10 9 19 12 8 8 6 7 8 4 4 5 5 8 7 7 6 6 6 6 6 8 6 6 6 10 14 12 20 37 26 20 19 18 19 20 23
85 84 85 88 44 18 7 6 7 11 24 6 6 4 6 8 6 4 4 4 6 6 6 7 6 6 8 7 6 7 5 6 6 8 9 10 16 28 22 22 19 18 18 18 20
84 84 85 33 42 25 14 9 10 23 20 7 6 6 7 7 6 5 5 4 4 6 6 5 4 4 5 4 5 5 9 7 7 8 13 11 14 27 32 28 21 19 16 18 18
84 85 79 45 17 6 8 12 21 27 9 8 7 6 7 8 6 6 7 7 7 10 9 6 5 4 4 6 6 6 10 16 17 16 16 10 13 21 19 16 21 46 51 16 17
86 86 58 29 24 22 14 15 30 18 13 6 6 6 8 7 6 6 7 7 6 6 6 8 8 6 5 6 7 8 9 14 26 17 13 12 18 19 12 15 20 22 23 16 17
86 24 13 18 20 14 12 22 20 16 10 7 6 7 8 6 5 6 7 6 6 6 10 8 9 6 5 5 6 9 11 7 10 9 11 12 13 10 10 10 9 11 10 18 18
60 31 16 7 13 14 13 25 13 8 8 8 12 7 8 6 6 7 7 6 6 6 6 8 12 6 5 6 6 8 7 11 10 22 22 12 13 14 20 14 12 11 11 13 19
50 25 8 6 14 14 13 14 12 7 8 11 12 12 6 6 5 6 7 6 5 6 6 6 9 9 6 8 8 8 9 9 8 11 16 16 20 17 21 16 12 11 12 12 13
29 17 8 10 20 13 11 12 16 7 8 9 10 11 12 9 6 6 7 7 5 5 7 6 7 12 8 6 5 6 9 11 15 22 16 18 15 10 12 10 10 12 11 14 16
37 17 8 12 18 14 11 10 9 7 9 10 10 9 10 12 12 6 6 4 5 6 8 8 10 13 12 7 6 8 8 7 8 10 25 18 20 15 11 12 13 13 14 22 25
45 19 10 13 13 13 12 13 11 7 8 10 9 8 9 11 10 9 6 4 5 5 34 15 8 15 10 13 9 12 8 7 7 16 15 15 22 16 14 16 21 17 18 19 28
44 24 22 21 12 13 13 14 14 10 9 11 13 11 12 16 11 10 6 5 4 24 9 8 19 10 8 6 6 8 8 8 10 12 16 17 22 28 26 18 18 16 17 18 24
41 35 25 26 26 23 19 17 19 12 11 13 14 10 11 15 19 23 20 16 9 8 8 9 18 12 11 7 7 7 7 8 9 8 9 10 15 20 18 18 16 14 15 20 22
31 33 34 36 22 19 18 18 18 15 12 12 12 16 15 24 20 18 15 14 15 16 13 17 13 20 18 10 10 12 9 7 8 10 10 18 16 19 20 17 16 18 18 22 23

GFSSW_sfc_rhum_009.txt.gz
RH
84 85 86 86 84 83 84 85 85 86 86 86 85 86 88 91 88 65 32 21 28 59 77 17 14 16 16 19 28 28 60 46 58 45 33 26 22 22 25 32 34 31 38 40 45
83 84 86 86 85 85 85 86 85 84 86 86 85 84 87 90 59 27 29 57 55 78 15 10 10 10 14 16 19 40 44 23 31 26 34 34 36 45 31 32 38 36 33 36 39
80 82 85 85 84 85 85 85 85 84 86 86 88 86 88 87 50 17 56 47 61 65 12 7 8 9 11 12 17 29 27 20 20 21 32 37 37 40 46 35 36 43 38 35 44
81 82 83 83 82 83 84 84 85 85 86 86 88 86 86 65 24 11 71 67 58 24 11 8 11 12 12 14 10 13 15 18 22 26 33 37 41 29 38 42 33 35 35 38 39
81 83 84 84 84 85 86 87 88 86 86 86 85 82 71 42 22 21 68 64 28 13 8 9 12 11 11 15 9 14 13 15 17 22 34 35 39 38 34 30 31 33 35 40 41
83 86 87 87 86 86 87 88 89 86 86 86 81 81 62 32 10 10 15 20 9 9 8 8 11 8 10 13 13 13 12 15 15 21 24 33 37 36 34 29 31 34 38 38 39
85 85 86 87 87 85 88 89 86 85 85 85 79 57 39 20 8 15 11 12 10 8 8 7 8 8 8 12 12 12 15 13 17 19 26 26 38 40 32 29 33 35 36 36 38
85 85 85 86 87 87 88 89 86 83 84 83 79 60 44 12 13 10 10 10 8 7 7 7 7 7 10 10 13 15 16 22 21 21 24 33 49 37 33 34 37 35 34 36 41
85 84 85 86 87 88 89 88 82 78 85 79 81 64 41 20 15 10 9 7 5 5 7 5 6 10 12 14 18 18 24 27 26 21 20 31 45 35 33 35 39 37 36 39 43
85 85 85 86 87 87 89 82 68 85 83 54 38 44 34 22 10 8 9 7 5 5 6 7 10 16 16 17 25 22 20 25 26 22 20 28 40 33 32 36 38 37 40 43 44
85 85 86 86 86 87 84 47 45 65 48 36 28 22 14 13 10 7 8 8 4 6 10 9 18 22 16 12 10 15 16 24 20 17 24 28 34 32 29 30 33 39 41 40 42
85 86 86 85 85 85 89 41 15 14 20 13 16 19 14 14 12 8 8 9 6 10 9 12 20 15 12 10 10 11 19 26 21 20 26 29 31 28 39 38 31 35 37 37 41
84 85 86 86 86 74 40 25 17 17 26 16 14 14 11 11 11 9 7 7 7 9 8 12 16 12 11 9 9 11 14 17 23 22 22 30 44 58 41 34 29 31 32 33 41
84 85 85 87 57 35 17 11 12 10 28 18 16 14 11 10 10 6 5 7 7 8 8 11 10 10 9 9 9 14 10 9 12 25 38 29 58 58 47 37 30 31 32 33 38
84 85 86 88 71 47 15 17 16 16 47 13 14 7 10 12 10 8 5 6 8 7 9 12 11 10 10 9 8 10 9 9 9 15 22 24 29 45 43 43 29 29 31 30 35
85 85 85 57 68 51 32 21 19 32 42 14 8 9 12 10 10 8 6 6 7 8 8 10 7 8 8 8 8 8 9 13 11 16 24 19 24 55 44 34 24 25 26 27 32
86 86 85 62 37 14 23 20 37 37 16 14 9 8 10 12 11 10 8 9 10 12 14 9 8 6 5 9 8 9 24 30 33 26 25 17 18 40 29 24 23 34 32 31 27
85 86 80 54 59 45 36 29 46 22 20 13 12 8 10 10 12 9 9 10 8 8 14 15 13 8 5 8 10 12 17 34 37 35 22 15 22 28 23 24 24 26 26 21 30
86 51 30 31 38 26 34 31 31 24 15 13 13 13 12 9 10 9 10 9 7 7 11 13 14 7 6 7 8 12 20 14 21 22 25 23 21 24 24 25 25 28 26 22 22
87 60 37 15 28 28 36 34 21 14 13 13 15 13 17 10 10 9 10 9 8 7 7 12 18 8 7 7 7 13 12 23 24 36 35 23 32 32 29 25 22 35 33 31 30
76 44 20 14 23 29 27 21 16 12 12 15 16 14 14 15 9 9 9 8 7 6 7 8 15 12 8 10 12 16 17 24 21 27 29 35 35 35 27 24 21 17 23 28 30
51 39 15 10 31 32 29 16 21 11 10 11 11 11 14 16 18 9 8 8 6 6 8 8 17 17 10 9 8 11 13 22 35 28 33 36 32 17 23 22 22 22 23 22 27
70 38 18 16 31 29 22 13 10 10 11 12 11 10 11 17 27 19 10 6 6 6 7 9 13 18 21 10 8 10 10 15 24 22 27 39 32 26 20 20 23 24 27 29 25
66 50 32 28 21 24 24 21 16 10 10 10 11 14 16 17 16 20 16 9 6 6 24 23 17 24 21 18 12 13 10 13 15 24 23 30 30 35 31 35 28 26 24 32 34
62 48 37 43 37 40 36 28 18 17 12 11 12 18 19 24 21 22 19 24 9 17 17 13 25 22 17 12 10 11 11 11 15 17 27 25 34 33 26 26 24 21 18 22 30
59 51 42 40 40 35 36 32 26 15 20 28 26 15 17 28 41 41 32 33 34 17 10 12 31 22 20 14 10 10 10 12 12 12 14 17 30 23 23 30 30 22 22 25 28
52 50 49 46 34 37 32 26 21 15 34 28 30 22 19 31 26 28 25 23 22 34 27 24 30 32 26 19 17 22 18 15 14 12 14 19 27 34 35 32 36 30 23 24 29

GFSSW_sfc_rhum_015.txt.gz
RH
79 80 81 82 82 81 82 82 82 82 83 84 87 87 88 93 91 78 34 23 30 71 71 26 26 23 21 29 34 36 48 52 44 42 46 40 57 52 50 59 48 50 64 67 68
79 79 80 81 80 80 82 83 82 82 83 84 86 86 91 93 86 52 40 58 63 80 22 17 12 15 19 27 34 43 50 40 34 35 41 38 50 53 53 58 62 61 59 60 66
78 78 80 80 80 80 81 82 82 82 82 84 86 86 93 93 51 22 54 55 66 67 16 12 11 12 16 23 38 43 44 34 32 35 31 40 44 44 59 63 63 74 70 65 67
78 79 80 81 80 80 81 81 82 83 83 83 85 88 91 87 13 10 68 80 66 45 14 12 12 16 21 19 19 42 30 28 31 38 40 42 43 47 55 54 51 62 64 65 70
79 80 81 82 81 81 81 82 84 84 83 81 83 87 76 40 22 23 66 75 58 24 16 11 15 18 18 15 18 29 29 27 32 38 40 36 41 47 48 45 50 60 64 68 70
81 85 85 84 81 81 84 86 87 83 81 81 82 85 61 25 11 15 32 54 37 20 16 11 10 15 16 14 19 27 32 31 38 39 39 42 44 45 47 55 59 63 67 66 68
83 84 85 85 83 81 83 87 84 83 82 82 82 74 55 20 12 15 24 30 19 18 12 12 11 12 17 15 15 26 37 38 40 45 38 39 51 55 45 56 62 65 66 66 65
84 84 84 84 85 86 86 86 86 81 83 80 83 81 34 19 26 23 16 13 14 14 12 9 10 13 16 13 22 32 39 53 47 42 38 48 66 51 44 48 58 56 61 61 62
84 84 85 85 86 86 87 88 80 81 79 84 90 71 38 30 31 24 14 12 13 15 15 7 10 12 14 17 29 28 48 48 47 38 43 54 64 47 44 44 48 48 53 50 54
85 85 86 86 86 87 88 86 78 83 84 70 56 55 28 17 22 15 17 12 13 10 10 9 12 14 24 22 29 38 44 47 48 40 42 55 57 47 46 47 48 47 47 47 49
86 86 86 87 87 88 91 65 22 37 74 44 33 27 20 19 19 17 13 12 7 9 12 11 13 17 14 17 18 23 33 42 39 34 48 53 57 49 47 47 49 49 49 47 48
86 87 87 88 88 88 94 29 28 33 35 22 26 24 19 23 24 17 12 14 11 10 11 13 15 12 12 18 17 17 33 36 30 35 47 55 58 44 45 47 46 47 48 47 48
87 88 88 89 88 78 58 35 30 32 40 27 21 19 18 24 26 22 16 14 12 11 12 13 11 12 15 20 20 20 23 31 32 34 44 51 62 56 49 44 41 42 42 43 49
87 87 88 84 51 88 49 32 36 33 39 26 26 19 19 21 24 17 15 13 14 14 12 12 10 12 19 18 19 28 16 21 29 34 52 47 78 60 53 51 47 45 44 45 47
87 88 88 81 95 86 27 46 38 32 47 19 21 15 21 17 17 15 13 14 14 10 12 13 11 13 17 18 16 19 15 16 29 32 51 52 59 59 52 57 50 46 44 45 46
88 89 87 84 95 86 65 61 36 34 48 27 18 20 22 22 17 13 13 12 13 10 13 9 10 11 11 11 14 17 14 19 32 42 56 50 46 53 61 48 43 40 39 44 46
87 89 90 71 72 59 51 28 35 43 24 22 20 17 18 24 14 15 13 13 16 19 17 13 10 10 13 16 16 15 18 26 37 52 55 38 49 40 40 37 35 38 39 41 44
87 91 90 82 81 67 40 25 49 27 23 18 17 16 20 18 20 17 14 16 15 15 19 16 13 10 10 14 16 16 18 28 27 37 31 30 51 36 27 28 31 30 33 37 43
89 96 96 82 78 70 31 34 34 33 25 21 20 23 24 18 17 19 18 13 11 13 15 21 19 13 10 10 12 18 19 16 23 54 35 34 28 20 31 27 30 31 30 37 40
95 99 93 63 63 50 33 30 24 24 18 20 28 24 28 22 20 19 25 15 11 11 12 15 19 13 9 12 12 11 14 21 29 32 40 30 31 28 23 37 37 34 33 36 37
97 75 40 69 52 41 29 25 17 12 10 20 25 23 24 23 20 23 19 15 13 10 10 15 16 15 14 15 12 19 19 24 24 33 30 32 30 29 24 36 41 36 30 33 37
97 41 40 50 53 57 44 30 26 14 13 14 17 18 20 21 20 20 20 17 13 10 14 13 16 15 12 13 13 13 15 17 18 26 39 32 28 26 30 38 33 32 32 36 36
89 98 64 39 47 53 47 34 25 22 18 20 16 14 12 17 22 18 18 13 14 14 11 15 19 19 17 16 19 17 19 24 27 36 41 34 32 30 31 34 37 37 42 38 38
93 93 65 58 59 56 57 47 40 26 23 20 18 16 17 20 16 20 20 17 17 13 30 22 21 12 14 15 16 18 16 23 20 30 30 33 24 35 30 31 36 38 42 42 37
92 94 73 74 61 55 58 50 44 39 29 30 38 29 24 44 33 33 24 26 28 35 28 12 17 19 11 10 15 14 14 20 21 17 19 18 29 31 30 29 31 29 36 45 43
99 99 87 91 69 56 61 52 44 36 34 42 38 27 35 38 28 30 30 40 37 33 32 20 18 22 20 14 11 12 13 14 16 23 22 24 32 32 26 37 33 29 33 40 49
86 90 94 86 73 67 62 51 45 40 35 30 45 51 37 32 28 28 27 34 47 40 41 21 17 23 16 18 18 24 16 16 19 20 20 26 23 38 39 35 30 34 34 35 40

GFSSW_sfc_rhum_021.txt.gz
RH
78 79 79 80 80 80 80 80 80 80 80 80 82 86 88 90 87 59 22 17 25 66 66 49 38 47 40 40 31 28 25 36 40 39 36 42 47 46 44 52 49 51 52 49 59
78 78 79 80 80 80 80 80 80 79 79 80 82 83 87 92 65 31 32 55 65 71 25 23 21 29 35 22 29 29 25 26 28 30 33 43 44 48 52 49 54 61 55 60 60
78 78 79 80 80 80 80 79 79 79 80 81 82 82 87 82 27 10 65 64 66 64 12 10 8 13 14 20 26 28 24 24 26 29 31 40 44 43 48 49 49 64 64 62 62
77 78 79 80 80 79 79 78 80 79 81 82 81 82 87 61 15 7 70 67 68 33 12 11 8 10 13 17 18 24 27 23 23 29 33 40 38 43 43 40 39 51 56 61 63
78 78 79 80 80 79 79 81 82 82 82 81 81 82 62 22 16 12 62 70 51 24 12 10 9 10 12 14 13 18 21 24 26 29 30 35 39 38 40 46 44 51 59 62 59
79 79 80 80 80 81 83 85 85 83 83 82 82 81 39 18 10 18 36 43 36 19 12 10 8 10 11 12 14 19 25 32 30 32 35 34 41 38 42 49 54 57 58 57 58
79 80 82 81 80 81 86 88 85 84 83 84 83 72 35 13 11 14 20 25 27 15 12 9 9 12 11 11 16 26 32 34 32 33 36 32 46 44 40 48 54 55 56 56 57
80 82 83 82 83 85 89 89 86 84 85 82 81 68 22 16 18 20 17 14 21 13 10 11 8 8 10 15 26 28 27 31 35 32 37 30 34 38 44 47 51 52 54 56 57
82 82 83 87 88 88 89 89 83 83 80 81 69 49 22 30 20 18 17 12 20 14 11 8 9 9 10 21 28 31 26 30 40 30 37 35 35 34 43 45 51 51 51 54 57
85 85 85 87 87 88 87 86 76 78 77 68 57 46 25 17 15 15 17 11 12 12 12 9 10 8 12 17 21 28 30 30 35 34 36 39 37 42 46 44 48 50 50 54 55
85 85 85 87 86 86 79 34 24 29 41 29 24 27 20 15 15 15 13 9 10 12 12 11 9 10 11 18 16 21 24 26 34 32 35 37 38 41 47 47 47 49 53 50 52
85 85 85 84 86 87 56 18 28 26 20 13 15 17 15 16 15 15 12 14 11 13 12 12 11 9 9 13 21 25 25 25 31 34 32 35 36 37 42 49 46 48 50 51 50
85 84 85 83 86 58 52 27 30 25 19 14 15 14 13 14 13 11 14 13 13 13 10 11 8 10 11 12 14 25 25 28 26 32 34 35 36 38 42 42 43 42 41 42 48
85 84 84 81 49 61 29 35 34 30 22 19 18 16 18 16 17 10 11 13 12 15 10 9 8 9 11 12 12 17 23 25 27 32 35 33 36 38 38 45 44 41 39 38 40
84 84 84 79 71 52 27 43 33 29 25 15 16 13 18 17 14 16 12 14 17 15 12 14 9 11 10 11 14 14 18 22 26 29 32 41 38 27 45 46 41 39 37 36 34
84 83 84 77 77 58 49 45 30 25 30 18 18 17 19 17 15 18 16 13 12 14 12 12 8 8 9 9 13 15 18 24 28 26 40 30 36 24 36 41 35 33 35 34 33
84 83 85 67 50 46 40 20 20 28 19 17 17 14 13 17 17 16 18 18 18 23 20 14 12 9 8 11 14 14 16 25 31 40 29 23 39 29 21 26 26 27 32 33 32
82 87 81 72 65 61 34 14 28 19 17 16 15 14 15 14 17 15 18 17 16 16 17 20 18 11 8 9 14 15 13 19 34 29 23 32 39 29 24 20 24 26 25 29 32
85 69 70 58 67 61 21 10 12 18 18 15 14 15 14 15 15 16 17 14 15 15 19 21 18 9 8 9 12 16 18 11 16 21 21 21 29 23 22 22 21 22 25 29 31
77 82 52 57 63 43 15 15 10 16 17 17 20 17 19 17 16 15 17 14 16 14 13 16 19 9 7 8 10 12 11 15 17 29 27 20 24 16 22 22 21 21 23 26 28
79 45 47 61 48 30 14 10 8 9 15 14 16 17 16 17 16 15 14 13 11 14 13 13 13 13 11 10 9 13 14 16 13 17 22 22 17 18 20 19 17 16 19 21 26
73 25 54 54 43 30 23 21 30 12 8 12 14 14 17 15 16 16 15 15 12 11 15 14 15 18 11 8 8 7 11 13 17 29 19 17 15 13 17 14 16 18 17 22 27
69 66 46 49 44 39 39 35 30 14 13 11 10 12 12 14 20 15 13 10 11 11 16 15 17 21 19 12 11 12 10 10 10 11 28 18 15 20 20 22 22 22 21 31 37
75 71 53 48 48 46 51 39 35 27 27 12 14 14 14 15 17 17 17 13 13 11 50 25 19 22 18 19 13 14 12 12 10 15 15 18 15 14 15 22 24 27 29 31 40
71 80 83 74 55 64 56 43 37 33 30 28 26 17 19 23 21 20 20 17 15 28 25 27 36 27 20 14 12 11 10 10 14 14 16 13 20 15 17 18 24 24 28 37 40
76 83 73 77 69 65 56 41 40 42 41 32 33 26 27 32 30 23 23 24 22 25 22 28 30 28 26 18 13 13 11 9 11 10 14 11 18 16 16 21 24 26 27 36 39
65 64 78 61 60 60 45 40 42 45 37 36 36 40 37 35 35 34 30 25 25 30 40 39 26 28 24 18 16 18 13 12 12 12 15 17 17 18 21 24 26 30 30 34 37

GFSSW_sfc_rhum_024.txt.gz
RH
78 78 79 80 80 80 80 80 79 79 78 80 82 85 87 89 84 43 15 23 25 84 67 26 29 28 30 28 25 20 18 18 20 18 24 25 30 30 29 36 34 32 29 34 38
77 78 78 79 79 79 79 79 78 78 78 80 82 83 86 89 31 13 25 54 76 78 28 27 27 29 29 25 20 20 17 17 15 15 19 24 25 32 33 35 36 38 30 35 38
77 78 79 79 78 78 78 78 78 78 80 81 82 82 86 71 18 7 54 69 71 70 14 15 14 22 19 13 19 19 19 15 16 16 17 23 25 26 28 33 31 40 40 40 39
77 78 79 79 79 79 79 79 81 81 82 82 81 82 84 39 10 7 60 65 69 27 12 10 7 13 9 12 15 20 16 13 14 18 16 22 22 25 27 24 24 31 37 38 38
77 78 79 80 80 80 81 83 84 83 83 82 81 82 50 19 10 10 63 61 25 13 10 8 8 7 7 9 13 17 14 14 14 18 18 20 24 23 26 30 24 31 37 37 36
78 80 81 82 82 82 84 86 86 83 83 82 81 82 34 14 6 8 16 19 16 12 8 6 6 5 6 9 13 13 13 16 15 17 20 23 25 23 25 32 29 35 36 34 34
78 79 81 82 79 82 86 87 84 83 84 83 82 54 23 10 7 8 9 10 12 10 8 6 5 5 6 9 9 12 16 20 19 20 23 20 29 30 28 32 33 35 36 34 34
79 80 80 80 82 85 87 87 85 83 84 84 82 40 17 9 9 11 9 10 11 11 8 5 6 6 7 8 12 13 12 18 21 23 24 22 28 26 27 32 35 35 35 35 36
82 81 81 83 85 86 86 87 82 82 79 80 47 34 14 26 15 11 11 10 11 9 9 6 7 6 7 11 13 14 16 15 26 21 26 24 24 24 27 30 34 34 33 34 36
84 84 84 83 84 85 85 85 71 81 63 48 40 34 18 12 12 11 12 9 12 9 9 8 8 7 7 10 16 16 16 13 19 24 25 25 24 26 28 28 30 32 32 33 34
84 85 84 83 83 84 62 16 26 32 38 17 14 15 12 10 10 12 10 9 8 8 7 7 8 8 8 9 11 12 14 14 14 19 24 23 25 23 28 27 27 28 32 31 33
84 84 84 83 83 82 45 12 17 15 12 7 8 8 9 9 11 11 9 9 10 8 6 7 8 7 7 8 10 11 13 14 15 22 23 21 24 23 23 30 28 27 30 32 31
84 84 84 85 83 49 22 17 17 13 14 8 7 7 7 8 11 9 10 9 10 9 7 8 5 6 6 8 11 13 14 14 16 23 22 20 24 23 20 24 28 26 25 27 31
84 83 84 86 43 22 16 20 16 15 14 10 11 11 11 9 11 7 9 9 9 10 8 7 4 6 7 8 10 15 12 13 16 22 25 22 22 19 19 24 27 28 25 24 28
83 83 84 87 38 23 18 16 15 18 17 11 12 10 11 12 10 9 7 10 10 9 9 9 7 7 8 7 8 12 10 13 14 19 19 23 26 19 19 23 23 25 24 22 22
83 82 82 39 37 27 22 19 20 20 19 11 12 13 14 12 11 13 8 9 9 9 10 8 6 5 6 5 6 8 11 13 13 15 23 19 22 20 18 25 19 20 22 22 20
83 82 74 43 21 21 21 12 14 15 12 11 12 11 10 11 12 13 12 12 12 17 16 10 8 6 5 6 6 8 12 21 24 22 23 16 19 21 14 12 15 14 18 20 20
84 83 54 34 32 34 26 9 19 10 10 11 11 10 11 9 10 12 12 12 10 10 11 14 12 8 6 6 7 8 11 17 30 21 19 17 22 17 15 12 11 10 13 16 20
83 26 26 27 36 35 19 10 10 10 8 8 10 13 12 10 10 12 12 10 9 9 14 13 12 6 6 5 6 9 13 9 13 13 16 14 17 14 12 13 12 11 12 15 18
50 34 25 29 39 37 16 14 8 5 6 8 10 10 13 11 12 11 12 10 9 8 9 11 15 8 7 6 5 7 8 13 12 25 25 16 17 16 16 14 11 10 10 12 14
41 29 34 38 38 32 21 10 6 4 6 9 10 10 10 10 12 10 11 10 9 8 10 10 13 11 9 10 8 8 10 11 11 13 18 19 15 11 13 12 10 8 8 8 10
36 27 34 33 31 20 17 12 23 5 4 6 8 9 10 10 12 12 12 10 9 9 11 11 12 16 10 6 6 6 10 12 16 24 15 15 13 8 10 9 9 9 8 7 9
40 27 20 31 25 16 17 15 14 12 7 6 6 8 7 10 16 12 11 8 8 10 13 12 15 19 15 7 6 7 8 8 10 11 22 18 16 10 10 11 11 11 11 12 20
39 29 24 38 28 34 30 30 26 14 15 10 8 7 8 11 11 14 11 8 7 8 45 22 15 20 16 14 9 11 8 7 8 14 14 14 15 12 11 11 11 11 11 11 17
39 32 52 32 36 50 47 40 36 28 18 16 19 10 9 12 12 12 11 10 11 30 14 12 22 17 14 10 9 9 8 7 8 10 13 12 14 13 12 11 11 9 9 10 20
58 48 50 48 40 36 35 32 34 28 25 28 23 15 11 14 13 13 11 13 14 11 14 18 27 24 21 13 11 11 10 9 8 8 8 9 12 9 9 10 10 10 9 12 17
50 44 49 47 35 34 27 26 28 35 32 25 28 32 31 22 22 20 17 16 12 16 18 20 21 28 28 17 16 18 13 11 11 9 8 11 11 9 10 10 12 14 12 13 13

GFSSW_sfc_rhum_027.txt.gz
RH
77 78 79 80 79 79 79 78 79 80 80 81 82 86 87 88 82 37 16 21 26 87 72 23 20 20 20 23 19 15 25 20 13 15 16 16 18 18 18 24 23 22 29 29 30
77 78 79 79 79 79 80 79 79 79 80 82 84 83 86 88 28 12 30 63 83 84 28 20 19 18 18 20 17 18 35 16 12 12 15 15 16 19 21 24 26 24 26 30 31
77 78 79 79 79 79 79 80 80 80 81 82 83 83 86 70 18 8 63 70 80 69 13 13 13 15 17 14 15 14 34 15 12 12 13 15 14 17 20 24 24 28 31 32 32
77 77 78 78 78 78 78 80 81 82 82 82 82 82 83 29 14 13 65 69 80 26 15 12 11 16 16 14 12 17 16 10 12 11 13 15 13 15 18 17 19 23 28 30 32
77 78 78 78 78 78 80 83 84 83 82 81 81 81 48 16 10 16 68 58 23 18 17 10 11 10 14 8 10 14 13 11 11 12 12 14 15 15 17 16 17 22 28 29 29
78 79 80 79 80 79 82 84 85 82 82 82 81 83 31 14 5 10 9 18 11 11 9 8 7 7 7 8 10 12 12 11 11 12 13 14 16 16 19 17 19 25 28 27 26
79 82 83 82 79 76 81 84 82 82 82 84 81 56 17 12 4 5 8 8 7 8 7 5 5 5 6 7 7 10 13 13 12 12 13 14 19 18 19 19 21 25 25 25 25
80 81 83 83 83 82 83 84 83 81 85 85 81 40 16 6 6 5 5 6 6 7 6 5 4 5 6 6 8 11 12 14 12 12 14 15 22 20 20 20 21 24 25 25 26
82 83 82 84 82 82 82 84 80 78 78 78 51 29 15 20 9 6 6 6 7 6 7 5 4 5 6 7 10 11 14 13 15 12 16 17 56 18 20 20 21 22 24 25 26
82 83 83 82 82 82 83 84 60 78 67 40 29 25 14 9 8 8 8 7 7 7 8 7 5 6 8 8 14 15 14 12 18 13 17 18 21 19 20 20 20 21 22 25 25
82 83 83 83 82 82 61 13 22 35 30 18 14 11 8 7 8 8 8 8 7 7 8 6 6 8 9 9 10 11 12 14 12 11 16 18 18 19 20 21 20 20 22 22 23
82 83 83 83 82 79 51 11 11 10 11 6 7 7 8 7 9 8 8 8 9 9 7 7 8 6 7 7 9 10 12 12 10 13 14 17 18 16 19 22 20 20 21 21 20
82 83 84 84 77 50 10 13 10 8 10 7 5 5 5 5 8 7 8 7 8 9 6 6 5 4 7 8 10 10 11 12 11 15 15 16 19 17 16 18 20 19 18 19 20
83 83 83 82 43 14 12 13 9 8 13 7 7 5 5 5 7 6 6 7 7 8 6 5 4 5 6 8 8 11 9 9 10 22 20 15 21 19 16 17 19 20 19 17 19
84 84 83 83 36 19 10 9 8 11 18 8 8 6 6 7 6 6 5 8 9 8 7 6 5 5 7 7 8 10 8 10 10 15 20 16 17 17 15 17 15 17 19 18 16
84 84 83 32 25 19 12 11 10 17 18 9 8 10 10 8 7 7 6 7 7 8 7 6 4 4 4 5 6 7 9 10 10 11 22 17 22 16 21 16 14 15 16 18 16
84 85 71 38 20 12 11 11 12 15 9 9 9 8 10 10 10 10 9 9 11 14 12 8 6 4 4 6 6 7 10 15 17 16 17 18 19 29 12 13 12 12 13 15 16
85 79 47 23 20 19 19 13 19 10 10 6 6 8 9 7 8 10 10 9 9 9 9 10 11 6 5 6 7 8 9 14 25 18 14 12 19 14 11 10 11 10 9 12 16
82 24 18 14 18 19 20 13 13 11 7 7 7 9 10 7 6 9 11 9 8 8 12 11 11 6 5 5 5 7 10 7 11 11 13 12 13 12 12 10 11 11 9 9 13
50 33 19 14 22 24 23 22 10 7 6 6 10 9 10 8 8 8 10 8 8 7 7 9 13 7 5 5 4 5 6 10 10 23 23 13 15 15 15 14 12 11 9 8 9
48 20 21 18 23 32 30 17 13 8 6 6 8 9 8 9 8 9 8 8 7 7 7 7 10 10 8 8 7 6 6 8 8 11 17 17 14 10 14 13 12 10 9 8 7
30 26 20 20 29 23 23 19 22 10 7 6 6 8 10 8 8 9 10 8 6 6 8 8 9 13 10 6 5 5 6 7 13 20 13 13 12 7 8 9 9 9 8 7 7
38 26 13 16 26 17 17 14 12 11 10 9 7 6 7 9 13 9 9 6 7 8 10 8 11 15 14 8 7 8 7 5 6 8 21 16 13 9 8 9 9 9 9 9 9
45 32 17 21 21 19 19 20 20 14 11 11 11 8 7 9 10 12 9 7 7 8 45 21 10 16 14 15 9 11 8 6 5 10 13 13 14 11 10 11 10 10 9 9 10
48 34 36 42 24 44 38 37 38 42 30 17 16 12 9 11 10 10 9 9 7 23 13 12 19 13 11 10 9 7 7 6 8 8 12 12 13 12 11 10 11 10 10 10 10
89 58 39 36 34 36 36 28 21 19 28 35 27 18 14 13 11 11 9 11 12 9 11 12 20 18 16 11 11 11 6 6 6 6 8 8 10 9 9 9 11 10 10 10 10
56 59 64 47 36 36 30 32 23 24 32 33 41 58 48 26 21 19 15 8 9 12 15 16 15 20 21 14 13 14 11 9 8 7 7 9 10 9 9 10 11 15 12 12 11

GFSSW_sfc_rhum_030.txt.gz
RH
77 78 79 79 79 78 78 79 79 79 80 81 84 86 87 88 82 33 22 17 21 83 74 20 24 22 18 22 21 23 47 24 19 15 16 15 16 18 19 20 33 26 29 34 27
78 78 78 78 77 76 79 79 79 80 80 82 84 86 86 88 34 14 18 57 80 79 19 17 21 18 19 19 21 78 76 35 24 14 14 14 16 17 20 21 25 29 26 26 27
77 78 78 77 75 75 76 78 79 80 81 82 82 83 86 73 19 10 67 77 77 59 10 11 14 14 17 15 17 55 58 30 28 13 12 13 16 15 20 24 22 31 30 28 27
77 78 79 78 76 74 76 76 79 79 81 81 81 82 83 39 15 10 64 78 80 21 11 11 12 15 17 16 17 54 63 37 14 12 12 13 13 17 18 19 19 25 29 30 28
77 78 80 80 79 79 80 81 82 81 80 80 80 82 49 19 13 11 71 65 28 17 13 12 12 13 15 14 12 36 38 25 11 10 11 12 13 14 16 16 18 25 30 31 30
76 79 81 83 82 80 81 82 82 81 80 79 80 83 38 14 6 8 11 17 10 12 12 12 11 10 11 12 11 8 15 13 10 10 12 14 13 12 15 15 20 26 29 29 28
79 81 81 82 81 80 82 82 82 80 79 80 84 58 21 11 6 10 8 10 10 10 10 8 9 8 9 9 7 8 12 11 11 10 12 12 18 16 16 15 21 25 27 27 27
82 82 82 82 82 82 82 82 82 79 78 84 80 42 19 5 6 6 5 7 7 7 7 6 6 6 7 6 7 8 10 16 11 10 11 12 39 16 17 15 21 24 25 26 26
82 82 82 82 82 82 83 82 78 75 75 76 61 39 18 15 9 6 5 6 6 5 7 6 5 6 6 8 9 9 13 14 16 11 12 16 55 32 23 14 20 22 23 24 26
82 82 82 83 82 82 83 77 61 67 66 40 32 30 20 10 8 6 5 4 5 6 7 8 7 7 7 8 13 11 13 12 18 14 12 36 65 40 26 17 18 20 23 24 24
82 82 83 83 82 82 63 27 19 30 32 24 17 13 7 9 6 8 5 5 6 8 9 8 9 10 8 8 9 9 11 12 16 31 13 24 40 57 32 19 18 18 21 22 23
82 83 84 84 82 76 55 18 10 10 11 7 8 12 12 7 9 8 6 10 10 10 8 8 10 6 6 7 9 10 12 13 15 26 21 16 38 42 32 19 18 18 19 20 21
83 83 84 84 80 53 14 10 9 8 10 8 5 5 7 10 9 8 7 8 9 9 8 9 7 5 6 7 10 10 12 13 15 16 13 14 17 18 18 19 18 16 18 18 20
84 84 84 86 43 22 15 10 7 6 13 9 6 5 4 5 7 6 6 8 7 9 8 8 5 5 5 7 8 11 8 10 13 16 21 14 21 22 17 22 20 17 16 18 19
84 84 83 85 44 29 14 9 8 8 21 6 5 4 4 5 5 5 5 8 9 7 8 9 6 5 6 6 7 10 8 9 10 15 18 24 25 20 21 21 20 17 17 16 17
84 85 84 39 27 24 16 10 10 15 21 8 7 8 6 5 5 5 5 6 8 8 7 7 5 4 4 4 5 6 8 9 10 11 21 24 24 27 22 22 23 16 14 18 16
86 85 77 45 30 13 14 13 14 17 9 9 8 8 8 6 6 7 7 8 10 15 12 8 7 4 3 4 5 6 9 15 17 17 17 15 26 27 18 18 21 20 17 17 17
86 82 57 33 23 23 20 18 25 13 12 7 6 8 10 8 7 6 9 9 8 9 10 12 11 6 5 5 6 7 8 14 27 20 16 12 18 23 18 18 24 24 20 14 17
85 34 28 16 16 18 22 24 18 15 9 8 7 8 9 8 8 8 10 9 7 8 13 11 11 6 5 4 4 6 9 7 11 12 14 12 13 11 13 17 20 19 13 15 17
56 42 31 18 13 19 27 34 18 11 9 8 11 9 10 9 10 8 10 9 8 6 7 10 13 7 6 5 4 5 6 9 10 23 25 15 17 17 22 23 16 18 13 15 14
52 34 17 13 16 27 36 26 21 15 14 14 14 12 9 9 9 9 8 8 8 6 6 7 11 10 8 9 8 6 6 7 7 11 17 20 16 12 17 20 17 15 13 11 9
37 37 14 17 27 25 28 23 28 20 16 15 13 11 10 8 10 9 9 7 6 7 8 7 9 14 9 7 6 6 8 7 12 22 13 14 14 8 16 14 14 13 12 11 11
46 33 18 16 28 23 21 17 15 17 17 17 16 12 9 9 14 10 10 6 6 6 9 9 11 16 14 8 7 8 7 5 5 6 20 16 14 10 12 16 15 12 12 15 16
57 39 21 17 20 20 35 38 28 15 13 14 18 16 14 13 10 13 10 8 6 6 46 16 10 17 13 15 9 12 8 7 6 10 11 12 14 13 14 17 17 15 14 13 19
63 42 30 46 36 39 56 59 51 36 24 24 26 24 36 33 12 11 9 9 8 24 11 10 20 14 11 9 8 9 9 7 9 10 12 10 14 13 12 17 16 22 16 16 18
90 53 44 44 36 32 38 38 40 36 50 39 37 36 41 45 45 58 39 20 13 9 10 12 22 17 16 9 9 10 9 8 8 8 9 9 10 9 11 11 18 15 16 17 19
55 78 91 62 40 32 24 27 48 45 44 31 53 59 50 40 41 37 32 27 20 15 17 18 16 25 24 14 12 14 12 10 8 8 9 12 12 11 12 14 16 19 16 18 17

GFSSW_sfc_rhum_033.txt.gz
RH
78 78 79 79 77 75 75 75 76 76 78 80 82 85 88 89 87 53 40 25 34 76 80 40 43 36 36 51 68 65 93 84 39 24 24 24 29 26 28 39 40 36 53 51 47
77 78 78 78 77 76 76 76 76 76 76 79 82 82 86 88 65 29 25 44 51 77 36 26 26 28 32 29 61 76 89 56 26 27 24 27 28 30 37 43 47 40 42 45 45
75 75 76 76 76 76 77 79 77 76 77 78 80 82 86 86 55 14 72 47 54 72 19 14 13 20 28 26 62 68 66 34 28 24 22 20 22 21 34 44 38 47 42 45 43
74 74 74 75 75 76 76 77 80 78 77 78 80 81 85 76 20 12 77 79 75 42 20 11 11 18 24 26 40 46 44 30 30 24 24 20 19 23 24 31 34 36 39 42 41
76 78 79 79 78 79 80 81 82 82 78 78 79 81 72 46 23 13 68 73 50 33 20 15 14 17 22 20 35 38 33 21 21 24 25 15 20 22 22 29 30 30 31 38 38
80 82 82 82 82 82 83 83 83 81 78 78 78 81 74 26 7 6 26 36 22 22 17 14 15 15 17 17 28 31 29 18 18 30 19 16 17 22 24 29 32 33 36 37 36
83 82 82 82 82 82 82 83 83 80 77 77 78 71 46 19 7 14 17 22 20 16 16 12 13 16 16 16 12 13 31 22 17 18 18 15 19 23 25 29 35 37 37 36 36
82 82 82 81 81 82 83 83 81 78 77 76 78 66 52 11 11 11 9 12 14 13 12 12 11 12 14 10 9 12 12 14 17 15 16 21 46 20 21 31 37 37 36 36 38
83 82 82 82 81 80 82 82 78 70 71 77 86 74 46 22 17 10 8 8 9 13 11 8 9 11 10 12 14 14 16 15 20 15 16 31 48 26 25 26 34 35 34 34 36
83 82 82 82 82 80 83 77 66 67 72 57 44 58 39 18 12 10 8 7 9 10 8 10 14 13 11 13 18 16 16 14 22 20 25 36 44 24 28 28 30 33 33 33 34
83 82 83 83 81 81 76 58 28 46 45 43 37 28 14 12 12 10 8 8 7 9 12 12 17 16 13 10 10 11 13 14 17 22 37 39 38 28 26 31 30 30 32 32 32
82 83 84 84 83 78 76 49 18 15 19 11 10 14 18 17 19 10 7 9 10 11 11 14 15 12 10 10 9 11 12 13 26 22 24 36 36 35 30 28 31 27 30 29 31
84 82 84 85 80 65 30 23 13 10 16 11 8 8 8 9 15 13 9 8 10 12 13 14 13 9 10 10 10 11 12 14 30 24 27 25 41 44 24 25 28 26 25 26 28
85 83 85 88 52 43 33 20 15 11 23 13 10 7 6 7 11 10 8 10 13 14 13 12 9 9 10 9 9 12 10 11 24 28 42 25 51 50 36 32 30 28 23 24 26
86 84 85 87 73 57 28 22 16 16 34 10 8 5 6 7 9 11 10 9 13 12 12 12 11 10 9 8 6 10 10 12 11 30 30 28 41 49 42 41 35 24 22 21 22
87 84 85 61 49 42 29 21 20 27 31 12 7 7 7 6 6 6 11 9 10 12 9 11 9 9 8 6 5 6 10 11 12 18 50 26 42 38 34 34 28 23 21 21 21
87 86 83 62 58 24 36 30 29 28 14 12 11 8 7 8 6 6 9 11 13 18 17 11 9 8 7 7 6 6 8 16 22 22 29 31 32 32 22 24 24 23 21 19 21
89 85 68 44 41 45 44 38 41 19 16 11 11 10 10 8 7 6 7 11 10 12 18 19 16 9 7 7 8 6 7 14 31 27 23 21 40 31 20 20 21 20 21 21 24
88 50 44 35 29 38 43 47 30 24 16 18 17 15 13 10 9 8 8 10 8 9 14 18 17 10 7 7 5 10 9 8 16 17 27 21 19 25 19 28 29 22 19 24 22
79 60 51 32 27 34 43 49 31 21 21 23 29 19 20 17 15 12 9 8 10 8 8 12 24 11 9 7 7 6 10 10 10 18 24 18 23 30 27 33 28 25 26 26 28
74 55 29 20 20 32 46 39 31 23 22 24 25 25 23 21 18 15 13 9 8 9 8 9 12 15 11 10 9 11 8 11 12 12 20 27 20 20 27 28 31 26 23 20 20
55 62 26 24 36 32 37 33 37 26 22 24 24 26 27 25 23 19 15 11 8 9 10 9 11 16 14 11 7 7 8 10 14 25 23 15 15 14 18 23 23 24 22 20 18
67 54 33 29 44 38 31 26 22 21 26 30 26 21 20 24 29 21 18 11 8 8 12 10 12 18 17 12 10 9 8 8 8 14 16 27 18 9 13 23 23 25 22 20 19
80 62 37 37 34 39 53 53 53 37 34 31 39 31 31 25 26 29 25 14 8 8 41 34 11 12 16 16 17 18 10 9 8 10 12 11 12 15 23 25 22 21 16 18 26
93 62 44 66 55 54 72 80 65 56 37 41 51 46 55 64 53 45 42 48 34 34 23 17 22 13 11 12 12 11 12 9 10 9 12 9 12 13 12 26 25 24 20 17 23
97 74 62 67 54 49 49 36 48 46 50 57 53 66 50 80 63 65 52 55 55 39 42 37 35 26 23 12 10 11 10 10 9 9 9 10 13 17 15 23 26 24 14 24 23
86 86 96 78 65 51 44 43 47 48 48 41 46 70 69 45 50 52 37 40 47 54 52 43 37 38 26 20 22 24 11 10 13 10 10 13 12 15 15 20 19 23 22 12 15